CEB161 RPVM-RPLL

Flight info

Callsign CEB161
Flight time N/A
Altitude 36000
Route PARAO4P PARAO DCT ROX DCT LAIYA LAIYA1A
Aircraft A20N/M-SDE2E3FGHIRWXY/LB1

Departure

Time 2026-05-05 12:24
Airport Mactan Cebu International Airport (RPVM)

Arrival

Time N/A
Airport Ninoy Aquino International Airport (RPLL)
Time Latitude Longitude Altitude Speed Heading
2026-05-05 11:56 10.31458 123.97881 44 ft 0 kts 315°
2026-05-05 12:06 10.31457 123.97882 44 ft 1 kts 315°
2026-05-05 12:06 10.31447 123.97894 44 ft 2 kts 315°
2026-05-05 12:06 10.31436 123.97904 44 ft 2 kts 315°
2026-05-05 12:07 10.31429 123.97911 44 ft 2 kts 315°
2026-05-05 12:07 10.31421 123.97923 44 ft 2 kts 291°
2026-05-05 12:07 10.31417 123.97938 44 ft 2 kts 272°
2026-05-05 12:07 10.31419 123.97954 44 ft 2 kts 253°
2026-05-05 12:08 10.31425 123.97968 44 ft 2 kts 233°
2026-05-05 12:08 10.31430 123.97974 44 ft 0 kts 223°
2026-05-05 12:08 10.31416 123.97958 44 ft 6 kts 225°
2026-05-05 12:08 10.31397 123.97939 44 ft 1 kts 225°
2026-05-05 12:09 10.31396 123.97938 44 ft 0 kts 225°
2026-05-05 12:16 10.31390 123.97932 44 ft 2 kts 226°
2026-05-05 12:16 10.31370 123.97911 44 ft 5 kts 225°
2026-05-05 12:16 10.31353 123.97900 44 ft 2 kts 198°
2026-05-05 12:17 10.31322 123.97903 44 ft 6 kts 154°
2026-05-05 12:17 10.31285 123.97935 44 ft 6 kts 134°
2026-05-05 12:17 10.31244 123.97977 44 ft 9 kts 147°
2026-05-05 12:17 10.31175 123.97956 44 ft 12 kts 224°
2026-05-05 12:18 10.31111 123.97892 44 ft 13 kts 224°
2026-05-05 12:18 10.31043 123.97820 44 ft 14 kts 226°
2026-05-05 12:18 10.30968 123.97746 44 ft 15 kts 223°
2026-05-05 12:18 10.30889 123.97669 44 ft 15 kts 225°
2026-05-05 12:19 10.30810 123.97589 44 ft 15 kts 225°
2026-05-05 12:19 10.30731 123.97509 44 ft 15 kts 225°
2026-05-05 12:19 10.30653 123.97431 44 ft 15 kts 225°
2026-05-05 12:19 10.30578 123.97356 44 ft 13 kts 224°
2026-05-05 12:20 10.30512 123.97289 44 ft 13 kts 224°
2026-05-05 12:20 10.30443 123.97220 44 ft 13 kts 224°
2026-05-05 12:20 10.30373 123.97150 44 ft 14 kts 224°
2026-05-05 12:20 10.30302 123.97079 44 ft 14 kts 224°
2026-05-05 12:21 10.30231 123.97008 44 ft 14 kts 226°
2026-05-05 12:21 10.30159 123.96935 44 ft 14 kts 225°
2026-05-05 12:21 10.30086 123.96861 44 ft 14 kts 225°
2026-05-05 12:21 10.30021 123.96795 44 ft 10 kts 225°
2026-05-05 12:22 10.29968 123.96742 44 ft 10 kts 224°
2026-05-05 12:22 10.29913 123.96700 44 ft 10 kts 194°
2026-05-05 12:22 10.29852 123.96736 44 ft 11 kts 133°
2026-05-05 12:22 10.29796 123.96796 44 ft 11 kts 133°
2026-05-05 12:23 10.29758 123.96837 44 ft 10 kts 134°
2026-05-05 12:23 10.29722 123.96898 44 ft 10 kts 80°
2026-05-05 12:23 10.29766 123.96949 44 ft 10 kts 45°
2026-05-05 12:23 10.29928 123.97112 44 ft 68 kts 45°
2026-05-05 12:24 10.30435 123.97622 44 ft 134 kts 45°
2026-05-05 12:24 10.31206 123.98395 256 ft 166 kts 45°
2026-05-05 12:24 10.32008 123.99206 874 ft 167 kts 45°
2026-05-05 12:24 10.32857 124.00072 1355 ft 183 kts 45°
2026-05-05 12:25 10.33804 124.01038 1814 ft 201 kts 45°
2026-05-05 12:25 10.34831 124.02082 2189 ft 220 kts 44°
2026-05-05 12:25 10.36071 124.03150 2535 ft 244 kts 26°
2026-05-05 12:25 10.37784 124.03445 3002 ft 262 kts 349°
2026-05-05 12:26 10.39413 124.02628 3774 ft 269 kts 321°
2026-05-05 12:26 10.40834 124.01375 4705 ft 269 kts 320°
2026-05-05 12:26 10.42270 124.00137 5563 ft 272 kts 321°
2026-05-05 12:26 10.43721 123.98923 6428 ft 275 kts 321°
2026-05-05 12:27 10.45204 123.97710 7299 ft 277 kts 322°
2026-05-05 12:27 10.46703 123.96498 8159 ft 279 kts 321°
2026-05-05 12:27 10.48253 123.95252 9024 ft 282 kts 321°
2026-05-05 12:27 10.49784 123.94025 9856 ft 285 kts 321°
2026-05-05 12:28 10.51338 123.92781 10616 ft 291 kts 321°
2026-05-05 12:28 10.52938 123.91499 11261 ft 300 kts 321°
2026-05-05 12:28 10.54583 123.90182 12035 ft 304 kts 320°
2026-05-05 12:28 10.56232 123.88860 12809 ft 308 kts 320°
2026-05-05 12:29 10.57889 123.87500 13557 ft 312 kts 317°
2026-05-05 12:29 10.59437 123.85961 14298 ft 315 kts 310°
2026-05-05 12:29 10.60812 123.84242 15029 ft 319 kts 306°
2026-05-05 12:29 10.62133 123.82423 15754 ft 323 kts 305°
2026-05-05 12:30 10.63445 123.80585 16461 ft 327 kts 305°
2026-05-05 12:30 10.64766 123.78736 17151 ft 331 kts 305°
2026-05-05 12:30 10.66124 123.76840 17840 ft 335 kts 305°
2026-05-05 12:30 10.67498 123.74925 18516 ft 339 kts 305°
2026-05-05 12:31 10.68880 123.73003 19170 ft 343 kts 305°
2026-05-05 12:31 10.70294 123.71036 19823 ft 347 kts 305°
2026-05-05 12:31 10.71713 123.69063 20462 ft 350 kts 305°
2026-05-05 12:31 10.73155 123.67057 21094 ft 354 kts 305°
2026-05-05 12:32 10.74600 123.65048 21710 ft 358 kts 305°
2026-05-05 12:32 10.76083 123.62985 22316 ft 362 kts 305°
2026-05-05 12:32 10.77077 123.61603 22643 ft 367 kts 305°
2026-05-05 12:33 10.82028 123.54714 24449 ft 380 kts 305°
2026-05-05 12:33 10.83625 123.52490 25006 ft 384 kts 305°
2026-05-05 12:33 10.85230 123.50257 25547 ft 388 kts 305°
2026-05-05 12:34 10.86853 123.47995 26078 ft 391 kts 305°
2026-05-05 12:34 10.88459 123.45759 26585 ft 394 kts 306°
2026-05-05 12:34 10.90066 123.43525 27076 ft 397 kts 306°
2026-05-05 12:34 10.91782 123.41327 27558 ft 400 kts 310°
2026-05-05 12:35 10.93661 123.39214 28026 ft 403 kts 314°
2026-05-05 12:35 10.95674 123.37209 28478 ft 406 kts 316°
2026-05-05 12:35 10.97732 123.35232 28911 ft 408 kts 316°
2026-05-05 12:35 10.99361 123.33675 29237 ft 410 kts 316°
2026-05-05 12:36 11.01774 123.31366 29703 ft 413 kts 316°
2026-05-05 12:36 11.03858 123.29368 30085 ft 415 kts 316°
2026-05-05 12:36 11.05941 123.27369 30448 ft 417 kts 316°
2026-05-05 12:36 11.08052 123.25339 30794 ft 419 kts 316°
2026-05-05 12:37 11.10178 123.23296 31123 ft 421 kts 316°
2026-05-05 12:37 11.12294 123.21259 31439 ft 424 kts 316°
2026-05-05 12:37 11.14381 123.19251 31742 ft 426 kts 316°
2026-05-05 12:37 11.16531 123.17181 32045 ft 428 kts 316°
2026-05-05 12:38 11.18702 123.15089 32340 ft 430 kts 316°
2026-05-05 12:38 11.20865 123.13007 32625 ft 431 kts 316°
2026-05-05 12:38 11.23048 123.10903 32960 ft 432 kts 316°
2026-05-05 12:38 11.25217 123.08813 33351 ft 430 kts 316°
2026-05-05 12:39 11.27363 123.06746 33730 ft 429 kts 316°
2026-05-05 12:39 11.29542 123.04646 34092 ft 428 kts 316°
2026-05-05 12:39 11.31706 123.02559 34436 ft 427 kts 316°
2026-05-05 12:39 11.33825 123.00516 34764 ft 427 kts 316°
2026-05-05 12:40 11.35996 122.98422 35093 ft 426 kts 316°
2026-05-05 12:40 11.38134 122.96359 35408 ft 425 kts 316°
2026-05-05 12:40 11.40261 122.94306 35712 ft 424 kts 316°
2026-05-05 12:40 11.42401 122.92240 36006 ft 424 kts 316°
2026-05-05 12:41 11.44525 122.90189 36271 ft 424 kts 316°
2026-05-05 12:41 11.46672 122.88116 36489 ft 424 kts 316°
2026-05-05 12:41 11.48821 122.86038 36681 ft 426 kts 316°
2026-05-05 12:41 11.50973 122.83959 36865 ft 427 kts 316°
2026-05-05 12:42 11.53114 122.81889 37046 ft 428 kts 316°
2026-05-05 12:42 11.55278 122.79797 37227 ft 429 kts 316°
2026-05-05 12:42 11.57473 122.77697 37400 ft 430 kts 317°
2026-05-05 12:42 11.59716 122.75740 37564 ft 432 kts 321°
2026-05-05 12:43 11.62125 122.73875 37727 ft 433 kts 324°
2026-05-05 12:43 11.64608 122.72142 37872 ft 434 kts 326°
2026-05-05 12:43 11.69622 122.68729 37885 ft 435 kts 326°
2026-05-05 12:44 11.74637 122.65314 37887 ft 435 kts 326°
2026-05-05 12:44 11.79653 122.61890 37888 ft 435 kts 326°
2026-05-05 12:45 11.84673 122.58459 37888 ft 435 kts 326°
2026-05-05 12:45 11.89680 122.55033 37888 ft 435 kts 326°
2026-05-05 12:46 11.94716 122.51585 37888 ft 435 kts 326°
2026-05-05 12:46 11.99706 122.48167 37888 ft 435 kts 326°
2026-05-05 12:47 12.04729 122.44726 37888 ft 435 kts 326°
2026-05-05 12:47 12.09736 122.41293 37887 ft 435 kts 326°
2026-05-05 12:48 12.14780 122.37835 37888 ft 435 kts 326°
2026-05-05 12:48 12.19792 122.34396 37888 ft 435 kts 325°
2026-05-05 12:49 12.24781 122.30971 37888 ft 435 kts 325°
2026-05-05 12:49 12.29496 122.27734 37888 ft 435 kts 325°
2026-05-05 12:50 12.34703 122.24156 37888 ft 435 kts 325°
2026-05-05 12:50 12.39716 122.20709 37888 ft 435 kts 325°